SCP
0 0 0 0 0 0 0 0 0 0 0 0 0 0 0 0 0 0 0 0 0 0 0 0 0 0 0 0 0 0 0 0 0 0 0 0 0 0 0 0 0 0 0
0 0 0 0 0 0 0 0 0 0 0 0 0 0 0 0 0 0 0 0 0 0 0 0 0 0 0 0 0 0 0 0 0 0 0 0 0 0 0 0 0 0 0
0 0 0 0 0 0 0 0 0 0 0 0 0 0 0 0 0 0 0 0 0 0 0 0 0 0 0 0 0 0 0 0 0 0 0 0 0 0 0 0 0 0 0
0 0 0 0 0 0 0 0 0 0 0 0 0 0 0 0 0 0 0 0 0 0 0 0 0 0 0 0 0 0 0 0 0 0 0 0 0 0 0 0 0 0 0
0 0 0 0 0 0 0 0 0 0 0 0 0 0 0 0 0 0 0 0 0 0 0 0 0 0 0 0 0 0 0 0 0 0 0 0 0 0 0 0 0 0 0
0 0 0 0 0 0 0 0 0 0 0 0 0 0 0 0 0 0 0 0 0 0 0 0 0 0 0 0 0 0 0 0 0 0 0 0 0 0 0 0 0 0 0
0 0 0 0 0 0 0 0 0 0 0 0 0 0 0 0 0 0 0 0 0 0 0 0 0 0 0 0 0 0 0 0 0 0 0 0 0 0 0 0 0 0 0
0 0 0 0 0 0 0 0 0 0 0 0 0 0 0 0 0 0 0 0 0 0 0 0 0 0 0 0 0 0 0 0 0 0 0 0 0 0 0 0 0 0 0
0 0 0 0 0 0 0 0 0 0 0 0 0 0 0 0 0 0 0 0 0 0 0 0 0 0 0 0 0 0 0 0 0 0 0 0 0 0 0 0 0 0 0
0 0 0 0 0 0 0 0 0 0 0 0 0 0 0 0 0 0 0 0 0 0 0 0 0 0 0 0 0 0 0 0 0 0 0 0 0 0 0 0 0 0 0
0 0 0 0 0 0 0 0 0 0 0 0 0 0 0 0 0 0 0 0 0 0 0 0 0 0 0 0 0 0 0 0 0 0 0 0 0 0 0 0 0 0 0
0 0 0 0 0 0 0 0 0 0 0 0 0 0 0 0 0 0 0 0 0 0 0 0 0 0 0 0 0 0 0 0 0 0 0 0 0 0 0 0 0 0 0
0 0 0 0 0 0 0 0 0 0 0 0 0 0 0 0 0 0 0 0 0 0 0 0 0 0 0 0 0 0 0 0 0 0 0 0 0 0 0 0 0 0 0
0 0 0 0 0 0 0 0 0 0 0 0 0 0 0 0 0 0 0 0 0 0 0 0 0 0 0 0 0 0 0 0 0 0 0 0 0 0 0 0 0 0 0
0 0 0 0 0 0 0 0 0 0 0 0 0 0 0 0 0 0 0 0 0 0 0 0 0 0 0 0 0 0 0 0 0 0 0 0 0 0 0 0 0 0 0
0 0 0 0 0 0 0 0 0 0 0 0 0 0 0 0 0 0 0 0 0 0 0 0 0 0 0 0 0 0 0 0 0 0 0 0 0 0 0 0 0 0 0
0 0 0 0 0 0 0 0 0 0 0 0 0 0 0 0 0 0 0 0 0 0 0 0 0 0 0 0 0 0 0 0 0 0 0 0 0 0 0 0 0 0 0
0 0 0 0 0 0 0 0 0 0 0 0 0 0 0 0 0 0 0 0 0 0 0 0 0 0 0 0 0 0 0 0 0 0 0 0 0 0 0 0 0 0 0
0 0 0 0 0 0 0 0 0 0 0 0 0 0 0 0 0 0 0 0 0 0 0 0 0 0 0 0 0 0 0 0 0 0 0 0 0 0 0 0 0 0 0
0 0 0 0 0 0 0 0 0 0 0 0 0 0 0 0 0 0 0 0 0 0 0 0 0 0 0 0 0 0 0 0 0 0 0 0 0 0 0 0 0 0 0
1 1 1 1 0 0 0 0 0 0 0 0 0 0 0 0 0 0 0 0 0 0 0 0 0 0 0 0 0 0 0 0 0 0 0 0 0 0 0 0 0 0 0
1 1 1 1 1 0 0 0 0 0 0 0 0 0 0 0 0 0 0 0 0 0 0 0 0 0 0 0 0 0 0 0 0 0 0 0 0 0 0 0 0 0 0
1 1 1 1 1 0 0 0 0 0 0 0 0 0 0 0 0 0 0 0 0 0 0 0 0 0 0 0 0 0 0 0 0 0 0 0 0 0 0 0 0 0 0
1 1 1 1 1 0 0 0 0 0 0 0 0 0 0 0 0 0 0 0 0 0 0 0 0 0 0 0 0 0 0 0 0 0 0 0 0 0 0 0 0 0 0
1 1 1 1 1 1 1 0 0 0 0 0 0 0 0 0 0 0 0 0 0 0 0 0 0 0 0 0 0 0 0 0 0 0 0 0 0 0 0 0 0 0 0
1 1 1 1 1 1 1 1 0 0 0 0 0 0 0 0 0 0 0 0 0 0 0 0 0 0 0 0 0 0 0 0 0 0 0 0 0 0 0 0 0 0 0
Wind_Speed
2 4 10 12 13 14 14 15 15 16 16 16 16 16 17 17 17 17 17 17 16 16 15 15 15 15 16 16 16 17 17 17 16 16 16 16 15 15 15 16 15 11 16
4 5 11 12 13 14 14 15 15 15 15 15 16 16 17 17 17 16 16 16 15 15 15 15 15 15 15 15 16 16 16 16 16 16 16 14 15 14 14 14 14 10 16
6 5 8 11 13 13 14 14 15 15 15 15 16 16 16 16 16 16 16 15 15 15 15 15 15 15 14 14 14 15 15 15 15 15 14 8 9 13 14 14 15 16 15
7 5 8 12 12 13 13 13 13 14 14 15 15 15 15 15 15 15 15 15 14 14 14 14 14 13 13 13 13 12 13 13 14 13 6 6 7 13 14 15 15 15 14
6 5 7 12 13 13 13 12 13 13 14 14 14 14 14 15 15 15 15 14 14 13 13 13 13 12 11 11 11 10 11 11 12 10 6 5 5 11 13 14 14 14 14
6 5 7 13 13 13 13 12 12 13 13 13 13 13 14 14 14 15 14 14 13 13 12 11 11 11 10 10 10 9 10 10 9 6 6 5 5 11 13 13 13 14 14
6 5 6 12 13 13 13 13 12 12 12 13 13 13 13 13 14 14 13 13 12 11 11 10 9 9 9 9 8 8 8 9 6 6 6 5 6 11 12 13 13 13 13
8 6 6 11 13 13 12 12 12 13 13 13 13 12 12 12 13 12 12 12 11 10 9 8 8 7 7 7 7 7 7 7 8 7 6 5 9 11 12 12 12 12 12
8 6 4 5 8 11 12 11 12 12 12 12 12 11 11 11 11 11 10 10 9 9 8 8 7 6 5 5 5 5 6 8 6 5 8 5 11 12 13 12 12 12 12
7 6 5 4 4 4 6 10 11 11 11 11 11 10 10 9 10 9 8 8 8 7 7 6 6 5 4 4 3 4 6 7 5 5 4 6 12 13 13 12 12 12 12
7 5 4 4 4 4 4 7 7 9 9 8 7 9 7 3 3 4 6 7 6 6 5 5 4 3 2 2 2 3 5 3 5 4 4 9 12 13 13 12 12 12 12
7 6 5 5 4 4 5 4 2 3 3 3 3 3 3 2 1 3 4 5 4 4 3 2 1 1 1 1 2 3 2 4 4 4 4 11 12 12 13 12 12 12 11
9 8 6 6 5 4 3 3 2 1 2 2 2 2 2 2 1 2 1 1 1 1 0 1 1 1 0 0 1 2 3 3 2 3 5 11 12 12 12 12 12 12 11
8 7 7 6 5 4 4 3 3 2 2 2 2 3 2 2 1 1 1 1 0 0 1 1 1 1 1 0 2 3 3 3 3 3 5 12 12 12 12 12 12 13 12
7 6 6 6 5 4 4 3 3 3 3 3 3 3 3 3 2 2 1 1 1 1 1 1 1 1 1 0 2 3 4 5 6 4 4 12 13 12 13 13 13 13 13
8 7 6 6 5 5 4 3 3 3 3 3 2 3 4 3 3 2 2 1 1 1 1 1 1 0 0 1 2 3 3 4 5 5 4 7 12 12 12 13 13 13 13
8 7 6 6 5 5 4 4 3 3 3 3 2 3 4 4 3 3 2 1 1 1 1 0 0 1 1 1 1 2 3 3 4 5 5 3 5 10 12 12 13 13 13
8 7 6 6 5 4 3 3 2 2 3 2 2 2 3 4 4 3 2 2 1 1 1 1 0 1 1 1 1 1 2 3 4 5 4 4 3 4 8 12 12 12 13
9 8 6 5 5 4 3 2 2 2 2 2 2 2 3 3 4 3 2 2 2 1 0 1 1 1 0 0 1 1 1 2 3 4 5 5 5 4 4 8 11 12 13
9 8 7 6 5 4 2 2 1 1 1 2 2 3 3 3 3 3 2 1 1 1 0 0 1 1 1 1 0 0 1 1 2 3 4 4 5 5 5 5 5 7 11
8 7 7 6 5 4 2 2 1 1 1 1 2 3 4 3 3 3 1 1 1 1 1 1 1 1 0 0 1 2 2 1 0 1 2 2 4 4 4 5 4 3 4
10 8 7 7 6 5 3 2 2 2 1 2 2 2 3 3 3 3 3 2 2 1 1 1 1 1 1 1 2 1 2 3 2 1 1 3 3 2 3 4 4 4 3
10 10 8 7 6 5 4 2 1 1 1 1 0 1 3 4 4 3 3 3 3 2 2 2 2 2 1 1 1 3 2 2 2 2 1 1 2 2 2 3 4 4 5
11 9 8 7 6 5 5 4 4 3 2 3 2 2 2 3 4 3 3 3 3 2 2 2 2 2 2 1 1 1 2 3 2 1 2 0 1 1 2 2 3 3 3
10 9 8 7 6 5 5 5 4 3 2 1 1 1 2 2 2 3 3 3 3 2 3 2 2 2 2 2 1 1 1 1 2 2 1 1 1 0 1 2 2 2 2
8 8 7 7 6 5 5 5 5 4 3 2 1 1 1 1 1 2 3 3 3 3 3 3 2 2 2 2 1 1 2 1 2 2 2 1 0 1 0 1 1 2 2
Wind_Direction
53 70 82 80 80 82 84 84 86 88 89 91 94 98 102 103 104 105 107 108 110 110 110 113 116 117 118 118 119 120 119 118 117 117 119 121 121 120 119 116 114 113 118
116 95 91 87 85 87 89 90 91 93 95 96 97 98 102 103 105 106 108 109 110 110 110 110 113 115 117 119 120 120 120 119 118 117 117 120 122 120 120 119 120 122 121
108 100 96 94 91 90 90 91 94 94 97 99 100 101 103 104 106 108 108 108 108 109 109 110 112 114 116 118 120 121 122 122 120 117 115 112 119 122 122 122 123 123 122
114 106 104 101 97 95 94 94 95 95 97 99 101 103 104 106 106 107 108 107 106 106 110 112 113 115 117 118 121 123 125 128 127 121 113 114 119 123 124 125 124 124 125
104 102 108 107 102 100 99 98 98 98 101 102 102 103 104 105 106 106 106 107 107 106 109 112 115 119 119 120 122 124 126 129 131 123 112 109 112 126 127 126 126 127 127
105 104 112 111 107 104 102 102 101 102 104 105 105 105 106 106 106 106 108 108 110 110 109 111 115 119 122 123 124 124 128 129 128 121 117 119 121 130 130 129 129 129 130
115 107 114 114 112 109 105 103 107 106 106 106 105 105 104 105 106 108 108 111 113 113 113 113 116 120 124 128 129 127 128 130 127 125 127 127 129 132 135 134 132 133 134
123 112 115 117 117 114 112 112 110 108 105 103 104 105 105 107 109 110 112 114 114 115 118 120 120 121 127 130 129 127 128 129 128 131 132 135 138 137 138 139 139 139 137
125 120 113 114 117 119 118 116 113 111 109 109 106 106 106 110 114 115 115 116 117 118 120 122 121 116 125 127 126 128 131 127 126 135 142 141 143 144 144 143 144 144 144
127 131 129 118 115 117 116 122 122 120 118 116 117 117 116 115 116 119 119 120 122 126 128 125 122 117 124 124 127 131 131 126 129 138 139 151 151 152 150 149 151 152 151
139 145 141 136 134 135 132 130 132 128 124 121 120 123 116 101 103 117 127 129 131 128 125 119 114 112 113 114 113 117 121 120 131 137 146 158 158 157 155 155 157 159 158
155 163 160 155 155 154 146 132 128 127 127 122 118 114 106 107 125 128 130 136 133 127 125 122 107 42 36 60 82 83 112 127 135 146 158 164 165 164 161 160 162 163 164
159 160 163 167 168 163 144 144 140 136 141 138 136 140 128 115 117 102 97 107 104 121 59 358 332 328 304 173 105 116 133 134 144 156 167 170 170 169 167 166 167 168 169
150 156 161 159 156 162 152 153 157 159 161 162 168 155 135 128 133 137 140 155 222 268 254 255 263 281 291 210 147 144 146 142 153 155 176 177 177 176 176 178 177 175 175
148 153 154 151 153 156 155 167 158 171 177 178 173 164 150 150 158 163 169 178 212 200 209 206 207 248 286 138 146 154 161 157 161 165 174 179 180 182 184 183 183 183 182
154 156 151 146 149 145 150 155 159 167 168 164 162 161 151 157 161 158 160 170 197 207 208 199 196 186 157 131 138 147 164 162 167 170 175 183 185 187 188 187 189 191 191
159 155 154 151 146 141 142 157 152 160 155 155 161 159 152 154 150 151 153 168 189 193 180 127 25 53 85 93 123 150 163 170 171 176 178 183 192 198 196 195 197 197 198
158 158 164 156 150 149 147 151 147 147 149 158 160 154 152 153 154 148 151 182 182 155 131 123 80 48 43 88 141 181 173 172 186 182 182 187 190 199 205 205 203 204 204
160 159 160 153 158 158 152 146 146 144 150 157 152 150 165 165 161 153 165 192 166 129 150 204 110 131 128 193 202 202 193 190 198 191 186 190 194 194 198 213 211 210 210
160 159 161 160 163 158 146 122 112 130 160 165 170 179 181 180 169 158 175 186 158 133 177 187 154 106 160 212 241 353 255 223 205 193 191 188 193 196 197 206 210 216 212
159 159 163 162 166 155 144 148 154 184 196 190 194 191 189 187 175 163 170 172 164 172 204 186 149 100 313 102 67 6 348 347 213 193 186 181 191 197 192 199 197 200 203
167 168 166 169 172 171 172 172 175 178 201 202 204 194 196 193 186 182 182 184 181 177 213 200 141 137 245 148 127 88 359 348 339 258 191 192 195 185 184 193 189 191 197
171 173 173 175 174 177 171 151 126 82 33 15 263 225 213 202 198 195 185 185 188 178 201 213 179 163 196 257 152 145 148 225 301 327 292 192 172 166 184 191 195 196 198
178 173 170 172 172 173 163 155 157 163 190 218 212 219 230 215 207 199 195 190 194 192 205 222 193 182 162 214 271 178 171 169 161 309 335 336 185 181 185 188 191 195 198
174 170 169 166 168 168 166 168 166 177 203 222 213 213 237 243 228 212 201 193 198 203 211 221 207 196 176 182 191 190 119 122 146 155 223 309 8 332 179 189 182 184 187
167 167 168 164 167 167 167 171 175 182 190 181 200 203 224 254 259 241 207 201 206 206 210 213 214 198 194 193 186 170 165 169 184 166 177 192 206 289 251 208 182 185 192